Location: Boiro
(42.6475°N, 8.8834°W)
Time: 17:17:51
(UTC+01:00)

Vanguard 1 Rocket - Pass Details

Date: 06 December 2021
Orbit: 651 x 4224 km, 34.3° (Epoch: 22 January)

Event Time Altitude Azimuth Distance (km) Brightness Sun altitude
Rises 07:05:37 0° 271° (W) 5,407 - -18.8°
Reaches altitude 10° 07:08:32 10° 267° (W) 4,770 - -18.2°
Exits shadow 07:10:46 19° 264° (W) 4,351 10.3 -17.8°
Maximum altitude 07:23:09 60° 193° (SSW) 3,657 10.4 -15.6°
Drops below altitude 10° 07:47:25 10° 122° (ESE) 7,417 13.5 -11.4°
Sets 07:53:29 0° 119° (ESE) 8,444 14.4 -10.4°
